Other Public Products
Issued by NWS Charleston, SC

Home | Current Version | Previous Version | Text Only | Print | Product List | Glossary On
Versions: 1 2 3 4 5 6 7 8 9 10 11 12 13 14 15 16 17 18 19 20 21 22 23 24 25 26 27 28 29 30 31 32 33 34 35 36 37 38 39 40 41 42 43 44 45 46 47 48 49 50
942
FPUS82 KCHS 261326
OPUCHS

TEST...KCHS/KSAV Gateway Observations...TEST
National Weather Service Charleston SC
800 AM EST SUN FEB 26 2017

NOTE: "fair" indicates few or no clouds below 12,000 feet with no
significant weather and/or obstructions to visibility.

SCZ050-WAZ558-NCZ071-TXZ119-213-PAZ071-DCZ001-FLZ074-172-MI076-
NYZ176-178-MAZ016-IL014-TNZ027-NJZ106-GAZ044-MD014-261400-
...Gateway Observations for Charleston International...

CITY           SKY/WX    TMP DP  RH WIND       PRES   REMARKS
Chas Airport   SUNNY     49  26  41 NW8       30.17R
Seattle        LGT RAIN  35  34  96 S10       29.73F WCI  27
Charlotte      SUNNY     37  19  48 NW3       30.16R
Dallas DFW     PTCLDY    43  32  65 SE12      29.95F
Dallas Love    PTCLDY    45  30  55 SE18      29.98S
Philladelphia  PTSUNNY   37  19  48 NW17      30.02R WCI  27
Wash National  MOSUNNY   37  16  42 NW12G24   30.11R WCI  29
Baltimore      PTSUNNY   34  16  47 W15G26    30.08R WCI  24
Miami          MOSUNNY   69  62  78 N7        30.09R
Detroit        PTCLDY    25  18  74 SW9       30.09R WCI  15
Newark         PTSUNNY   38  19  46 NW13G22   29.94R WCI  30
Laguardia      PTSUNNY   39  19  44 W18G28    29.93R WCI  30
J F K          PTSUNNY   38  19  46 NW26G38   29.94R WCI  26
Boston Logan   PTSUNNY   38  21  50 W18G30    29.75R WCI  28
Ft. Lauderdale MOSUNNY   68  62  81 N8        30.08R
Chicago O`Hare CLOUDY    27  19  72 S10       30.00F WCI  17
Chicago Midway CLOUDY    26  17  68 S10       30.02F WCI  16
Houston Bush   PTCLDY    48  41  76 E5        30.03R
Houston Hobby  PTCLDY    54  47  77 SE5       30.02R
Nashville      CLEAR     29  22  75 CALM      30.24R
Atlanta        PTCLDY    37  22  54 NW13      30.18R WCI  29

$$

GAZ044-118-TXZ119-213-NCZ071-DCZ001-MDZ014-506-PAZ021-071-NJZ106-
NYZ176-178-MAZ106-OHZ011-021-055-MIZ076-KYZ091-ILZ014-INZ047-
MNZ060-ONZ431-261400-
...Gateway Observations for Savannah International...

CITY           SKY/WX    TMP DP  RH WIND       PRES   REMARKS
Savannah Arpt  SUNNY     45  30  55 W6        30.20R
Atlanta        PTCLDY    37  22  54 NW13      30.18R WCI  29
Charlotte      SUNNY     37  19  48 NW3       30.16R
Dallas DFW     PTCLDY    43  32  65 SE12      29.95F
Houston Bush   PTCLDY    48  41  76 E5        30.03R
Wash National  MOSUNNY   37  16  42 NW12G24   30.11R WCI  29
Wash Dulles    MOSUNNY   34  14  43 NW13      30.10R WCI  25
Baltimore      PTSUNNY   34  16  47 W15G26    30.08R WCI  24
Philadelphia   PTSUNNY   37  19  48 NW17      30.02R WCI  27
Newark         PTSUNNY   38  19  46 NW13G22   29.94R WCI  30
Laguardia      PTSUNNY   39  19  44 W18G28    29.93R WCI  30
J F K          PTSUNNY   38  19  46 NW26G38   29.94R WCI  26
Boston         PTSUNNY   38  21  50 W18G30    29.75R WCI  28
Pittsburg      FLURRIES  27  20  75 W10       30.08R WCI  17
Akron          FLURRIES  26  13  57 NW10      30.09R WCI  16
Cleveland      FLURRIES  27  17  66 SW10      30.13R WCI  17
Cincinnati     CLEAR     21  17  84 SW5       30.19R WCI  15
Columbus       PTCLDY    28  14  57 W8        30.18R WCI  19
Detroit        PTCLDY    25  18  74 SW9       30.09R WCI  15
Chicago O`Hare CLOUDY    27  19  72 S10       30.00F WCI  17
Minneapolis    PTCLDY    24  17  74 SW5       29.74S WCI  18
Indianapolis   PTCLDY    22  16  78 S6        30.16R WCI  14
Toronto Canada FLURRIES  27  19  74 W13       29.98R WCI  16

$$




USA.gov is the U.S. government's official web portal to all federal, state and local government web resources and services.